Tracking 35274 objects as of 10-Sep-2026
HD Live streaming from Space Station
objects crossing your sky now

SL-6 DEB


SL-6 DEB is no longer on orbit


NORAD ID: 9642
Int'l Code: 1976-127D
Launch date: December 28, 1976
Source: Commonwealth of Independent States (former USSR) (CIS)
Launch site: PLESETSK MISSILE AND SPACE COMPLEX (PKMTR)
Decay date: 1977-02-23

Note: This is SATELLITE DEBRIS
Your satellite tracking list
Your tracking list is empty




NASA's NSSDC Master Catalog

Two Line Element Set (TLE):
1 09642U 76127  D 77045.65893022  .01178543 +00000-0 +00000-0 0  9991
2 09642 062.8128 324.2667 0111474 120.5025 240.7139 16.02423096007605
Source of the keplerian elements: AFSPC